Home > Weather > Fullerton > Past weeks

Flag for U.S.A. Weather for the Past 2 Weeks in Fullerton, California, U.S.A.

Now
61 °F

Clear.


Feels Like: 61 °F
Forecast: 50 / 82 °F
Wind: No wind

Location: Fullerton Municipal Airport

Current Time: Feb 12, 2016 at 9:35:18 PM

Latest Report: Feb 12, 2016 at 8:53 PM


Visibility: 10 mi

Pressure: 30.06 "Hg

Humidity: 65%

Dew point: 49 °F

Location of FullertonLocation

Historic Weather in Fullerton — Graph

°F

Fullerton Temperature Yesterday

Maximum temperature yesterday: 84 °F (at 1:53 PM)
Minimum temperature yesterday: 51 °F (at 5:53 AM)
Average temperature yesterday: 66 °F

High & Low Weather Summary for the Past Weeks

 TemperatureHumidityPressure
High92 °F (Feb 9, 1:53 PM)90% (Jan 31, 1:02 AM)30.35 "Hg (Jan 31, 1:02 AM)
Low36 °F (Feb 2, 5:53 AM)8% (Feb 7, 2:53 PM)29.61 "Hg (Jan 31, 2:00 PM)
Average62 °F42%30.10 "Hg
* Reported Jan 28 7:53 PM — Feb 12 7:53 PM, Fullerton, Weather by CustomWeather, © 2016

Note: Actual official high and low records may vary slightly from our data, if they occured in-between our weather recording intervals... More about our weather records

Advertising

Fullerton Weather History for the Previous 24 Hours

 ConditionsComfort  
Time TempWeatherWind HumidityBarometerVisibility
7:53 PM
Fri, Feb 12
64 °FClear.No wind61%30.04 "Hg10 mi
6:53 PM67 °FClear.No wind57%30.05 "Hg10 mi
5:53 PM70 °FClear.3 mph47%30.03 "Hg10 mi
4:53 PM74 °FSunny.5 mph36%30.02 "Hg10 mi
3:53 PM76 °FSunny.6 mph27%30.01 "Hg10 mi
2:53 PM82 °FSunny.7 mph21%30.00 "Hg8 mi
1:53 PM85 °FSunny.7 mph17%30.01 "Hg9 mi
12:53 PM83 °FSunny.No wind17%30.03 "Hg8 mi
11:53 AM82 °FSunny.No wind18%30.07 "Hg9 mi
10:53 AM79 °FSunny.No wind20%30.09 "Hg10 mi
9:53 AM73 °FSunny.No wind26%30.10 "Hg10 mi
8:53 AM66 °FSunny.No wind37%30.11 "Hg8 mi
7:53 AM60 °FSunny.No wind42%30.09 "Hg9 mi
6:53 AM54 °FSunny.3 mph53%30.09 "Hg8 mi
5:53 AM50 °FClear.No wind66%30.08 "Hg10 mi
4:53 AM52 °FClear.No wind64%30.06 "Hg10 mi
3:53 AM52 °FClear.No wind61%30.06 "Hg10 mi
2:53 AM54 °FClear.No wind59%30.07 "Hg10 mi
1:53 AM56 °FClear.3 mph51%30.09 "Hg10 mi
12:53 AM57 °FClear.3 mph53%30.09 "Hg10 mi
11:53 PM
Thu, Feb 11
57 °FClear.No wind53%30.10 "Hg10 mi
10:53 PM59 °FClear.No wind48%30.09 "Hg10 mi
9:53 PM61 °FClear.No wind46%30.09 "Hg10 mi
Weather by CustomWeather, © 2016

See weather overviewHow to use our weather pages